QPF
0.00 0.01 0.00 0.01 0.06 0.13 0.02 0.00 0.00 0.00 0.00 0.00 0.00 0.00 0.00 0.02 0.09 0.10 0.01 0.00 0.00 0.00 0.00 0.00 0.00 0.00 0.00 0.00 0.00 0.00 0.00 0.00 0.00 0.01 0.00 0.01 0.04 0.01 0.01 0.00 0.00 0.00 0.03 0.07 0.02 0.01 0.00 0.00 0.01
0.01 0.01 0.00 0.09 0.08 0.03 0.00 0.00 0.00 0.00 0.00 0.00 0.00 0.00 0.01 0.00 0.00 0.00 0.00 0.00 0.00 0.00 0.00 0.00 0.00 0.00 0.00 0.00 0.00 0.00 0.00 0.00 0.01 0.01 0.00 0.04 0.02 0.04 0.08 0.01 0.01 0.02 0.02 0.01 0.00 0.00 0.00 0.00 0.00
0.01 0.00 0.05 0.08 0.04 0.01 0.00 0.00 0.00 0.00 0.00 0.00 0.00 0.01 0.01 0.00 0.00 0.00 0.00 0.00 0.00 0.01 0.04 0.00 0.00 0.00 0.00 0.00 0.00 0.00 0.00 0.01 0.00 0.00 0.03 0.07 0.02 0.07 0.05 0.01 0.00 0.01 0.01 0.01 0.00 0.00 0.00 0.00 0.00
0.00 0.01 0.09 0.05 0.02 0.01 0.00 0.00 0.00 0.00 0.00 0.00 0.00 0.00 0.00 0.00 0.00 0.00 0.00 0.00 0.02 0.13 0.08 0.00 0.00 0.00 0.00 0.01 0.00 0.01 0.00 0.00 0.00 0.01 0.04 0.04 0.02 0.04 0.02 0.02 0.01 0.02 0.04 0.05 0.01 0.00 0.00 0.00 0.00
0.00 0.01 0.10 0.05 0.04 0.00 0.00 0.00 0.00 0.00 0.00 0.00 0.00 0.00 0.00 0.00 0.00 0.00 0.00 0.00 0.01 0.05 0.02 0.00 0.03 0.03 0.00 0.02 0.00 0.02 0.00 0.00 0.00 0.00 0.02 0.02 0.02 0.05 0.06 0.06 0.05 0.01 0.01 0.00 0.00 0.00 0.00 0.00 0.00
0.00 0.02 0.07 0.03 0.01 0.01 0.00 0.00 0.00 0.00 0.00 0.00 0.00 0.00 0.00 0.00 0.00 0.00 0.00 0.00 0.00 0.02 0.00 0.00 0.00 0.00 0.00 0.00 0.00 0.02 0.01 0.01 0.00 0.03 0.11 0.18 0.21 0.24 0.13 0.09 0.03 0.00 0.00 0.00 0.00 0.00 0.00 0.00 0.00
0.00 0.01 0.03 0.06 0.01 0.04 0.01 0.00 0.00 0.00 0.00 0.00 0.00 0.00 0.00 0.00 0.00 0.00 0.00 0.00 0.00 0.00 0.00 0.00 0.00 0.00 0.00 0.00 0.05 0.10 0.03 0.01 0.04 0.05 0.16 0.17 0.09 0.22 0.16 0.05 0.00 0.00 0.00 0.00 0.00 0.00 0.00 0.00 0.00
0.00 0.01 0.07 0.04 0.01 0.02 0.01 0.00 0.00 0.00 0.00 0.00 0.00 0.00 0.00 0.00 0.00 0.00 0.00 0.00 0.00 0.01 0.00 0.00 0.00 0.00 0.00 0.00 0.11 0.13 0.09 0.01 0.01 0.01 0.07 0.08 0.07 0.08 0.05 0.00 0.00 0.00 0.00 0.00 0.00 0.00 0.00 0.00 0.00
0.00 0.05 0.06 0.01 0.01 0.01 0.01 0.00 0.00 0.00 0.00 0.00 0.00 0.00 0.00 0.00 0.00 0.00 0.00 0.00 0.01 0.00 0.02 0.00 0.00 0.00 0.01 0.01 0.04 0.07 0.04 0.00 0.00 0.00 0.04 0.02 0.00 0.00 0.00 0.00 0.00 0.00 0.00 0.00 0.00 0.00 0.00 0.00 0.00
0.00 0.06 0.01 0.00 0.02 0.01 0.01 0.00 0.00 0.00 0.00 0.00 0.00 0.00 0.00 0.00 0.00 0.00 0.00 0.00 0.01 0.03 0.01 0.00 0.00 0.00 0.00 0.01 0.00 0.00 0.01 0.00 0.00 0.01 0.03 0.03 0.02 0.00 0.00 0.00 0.00 0.00 0.00 0.00 0.00 0.00 0.00 0.00 0.00
0.01 0.01 0.00 0.00 0.00 0.02 0.01 0.00 0.00 0.00 0.00 0.00 0.00 0.00 0.00 0.00 0.00 0.00 0.00 0.00 0.01 0.01 0.00 0.00 0.00 0.00 0.03 0.04 0.01 0.00 0.00 0.00 0.00 0.01 0.01 0.00 0.00 0.00 0.00 0.00 0.00 0.00 0.00 0.00 0.00 0.00 0.00 0.00 0.00
0.01 0.00 0.00 0.00 0.00 0.00 0.00 0.00 0.00 0.01 0.00 0.00 0.00 0.00 0.00 0.00 0.00 0.00 0.00 0.00 0.00 0.00 0.00 0.00 0.00 0.00 0.05 0.04 0.00 0.00 0.00 0.00 0.00 0.00 0.00 0.00 0.00 0.00 0.00 0.00 0.00 0.00 0.00 0.00 0.00 0.00 0.00 0.00 0.00
0.01 0.01 0.00 0.00 0.00 0.00 0.00 0.00 0.00 0.00 0.00 0.00 0.00 0.00 0.00 0.00 0.00 0.00 0.00 0.00 0.00 0.00 0.00 0.00 0.00 0.00 0.00 0.00 0.00 0.00 0.00 0.00 0.00 0.00 0.00 0.00 0.00 0.00 0.00 0.00 0.00 0.00 0.00 0.00 0.01 0.00 0.00 0.00 0.00
0.02 0.02 0.00 0.00 0.00 0.00 0.00 0.00 0.00 0.00 0.00 0.00 0.00 0.00 0.00 0.00 0.00 0.00 0.00 0.00 0.00 0.00 0.00 0.00 0.00 0.00 0.00 0.00 0.01 0.01 0.00 0.00 0.00 0.00 0.00 0.00 0.00 0.00 0.00 0.00 0.00 0.00 0.00 0.00 0.00 0.00 0.00 0.00 0.00
0.00 0.01 0.03 0.02 0.00 0.01 0.01 0.05 0.03 0.02 0.00 0.00 0.00 0.00 0.00 0.00 0.00 0.00 0.00 0.00 0.00 0.00 0.00 0.00 0.00 0.00 0.00 0.00 0.00 0.00 0.00 0.00 0.00 0.00 0.00 0.00 0.01 0.00 0.00 0.00 0.00 0.00 0.00 0.00 0.00 0.00 0.00 0.00 0.00
0.00 0.04 0.10 0.03 0.00 0.01 0.02 0.10 0.15 0.00 0.00 0.00 0.00 0.00 0.00 0.00 0.00 0.00 0.00 0.00 0.00 0.00 0.00 0.00 0.00 0.00 0.00 0.00 0.00 0.00 0.00 0.00 0.00 0.00 0.00 0.00 0.01 0.00 0.00 0.01 0.02 0.00 0.00 0.00 0.00 0.00 0.00 0.00 0.00
0.00 0.03 0.05 0.03 0.00 0.00 0.01 0.10 0.05 0.00 0.00 0.00 0.00 0.00 0.00 0.00 0.00 0.00 0.00 0.00 0.00 0.00 0.00 0.00 0.01 0.00 0.00 0.00 0.00 0.00 0.00 0.00 0.00 0.00 0.00 0.00 0.00 0.00 0.00 0.06 0.02 0.00 0.00 0.01 0.03 0.02 0.01 0.00 0.00
0.01 0.03 0.02 0.04 0.01 0.00 0.00 0.04 0.00 0.00 0.00 0.00 0.00 0.00 0.00 0.00 0.00 0.00 0.00 0.00 0.00 0.00 0.00 0.00 0.00 0.00 0.00 0.00 0.00 0.00 0.00 0.00 0.00 0.00 0.00 0.00 0.00 0.00 0.00 0.00 0.00 0.00 0.00 0.01 0.02 0.03 0.00 0.00 0.00
0.00 0.00 0.00 0.00 0.00 0.00 0.00 0.00 0.00 0.00 0.00 0.00 0.00 0.00 0.00 0.00 0.00 0.00 0.00 0.00 0.00 0.00 0.00 0.00 0.00 0.00 0.00 0.00 0.00 0.00 0.00 0.00 0.00 0.00 0.00 0.00 0.00 0.00 0.00 0.00 0.00 0.00 0.00 0.00 0.00 0.00 0.00 0.00 0.00
0.00 0.00 0.00 0.00 0.00 0.00 0.00 0.00 0.00 0.00 0.00 0.00 0.00 0.00 0.00 0.00 0.00 0.00 0.00 0.00 0.00 0.00 0.00 0.00 0.00 0.01 0.00 0.00 0.00 0.00 0.00 0.00 0.00 0.00 0.00 0.00 0.00 0.00 0.00 0.00 0.00 0.00 0.00 0.00 0.00 0.00 0.00 0.00 0.00
0.00 0.00 0.00 0.00 0.00 0.00 0.00 0.00 0.00 0.01 0.01 0.00 0.00 0.00 0.00 0.00 0.00 0.00 0.00 0.00 0.00 0.00 0.00 0.00 0.01 0.01 0.00 0.00 0.00 0.00 0.00 0.00 0.00 0.00 0.00 0.00 0.00 0.00 0.00 0.00 0.00 0.01 0.00 0.00 0.00 0.00 0.00 0.00 0.00
0.00 0.00 0.00 0.00 0.00 0.00 0.00 0.00 0.00 0.01 0.01 0.00 0.00 0.00 0.00 0.00 0.00 0.00 0.00 0.00 0.00 0.00 0.00 0.00 0.00 0.00 0.00 0.01 0.00 0.00 0.00 0.00 0.00 0.00 0.00 0.00 0.00 0.00 0.00 0.00 0.00 0.00 0.00 0.01 0.00 0.00 0.00 0.00 0.00
0.00 0.00 0.00 0.00 0.00 0.00 0.00 0.00 0.00 0.00 0.00 0.00 0.00 0.00 0.00 0.00 0.00 0.00 0.00 0.00 0.00 0.00 0.00 0.00 0.00 0.00 0.00 0.00 0.02 0.02 0.00 0.00 0.00 0.00 0.00 0.01 0.01 0.00 0.00 0.00 0.00 0.00 0.00 0.01 0.00 0.01 0.00 0.00 0.00
0.00 0.00 0.00 0.00 0.00 0.00 0.00 0.00 0.00 0.00 0.00 0.00 0.00 0.00 0.00 0.00 0.01 0.01 0.01 0.00 0.00 0.00 0.00 0.00 0.00 0.00 0.00 0.00 0.01 0.02 0.01 0.00 0.02 0.01 0.04 0.01 0.00 0.00 0.00 0.00 0.00 0.00 0.00 0.03 0.03 0.01 0.00 0.00 0.02
0.00 0.00 0.00 0.00 0.00 0.00 0.00 0.00 0.00 0.00 0.00 0.00 0.00 0.00 0.00 0.00 0.00 0.00 0.01 0.01 0.00 0.00 0.00 0.00 0.00 0.00 0.00 0.00 0.00 0.00 0.00 0.00 0.03 0.02 0.02 0.05 0.01 0.00 0.00 0.00 0.01 0.00 0.01 0.02 0.04 0.03 0.03 0.02 0.02
0.00 0.00 0.00 0.00 0.00 0.00 0.00 0.00 0.00 0.00 0.00 0.00 0.00 0.00 0.00 0.00 0.00 0.00 0.00 0.00 0.00 0.00 0.00 0.00 0.00 0.00 0.00 0.00 0.00 0.00 0.00 0.00 0.00 0.00 0.00 0.01 0.03 0.00 0.02 0.04 0.03 0.02 0.01 0.01 0.01 0.02 0.01 0.02 0.02
0.00 0.00 0.00 0.00 0.00 0.00 0.00 0.01 0.00 0.00 0.00 0.00 0.00 0.00 0.00 0.00 0.00 0.00 0.00 0.00 0.00 0.00 0.00 0.00 0.00 0.00 0.00 0.00 0.00 0.00 0.00 0.00 0.00 0.00 0.01 0.00 0.00 0.00 0.00 0.01 0.04 0.02 0.02 0.01 0.03 0.02 0.02 0.06 0.03
0.00 0.00 0.00 0.00 0.00 0.00 0.00 0.00 0.00 0.00 0.00 0.00 0.00 0.00 0.00 0.00 0.00 0.00 0.00 0.00 0.00 0.00 0.00 0.00 0.00 0.00 0.00 0.00 0.00 0.00 0.00 0.00 0.01 0.04 0.03 0.00 0.00 0.00 0.01 0.01 0.01 0.00 0.01 0.02 0.02 0.02 0.01 0.04 0.04
0.00 0.00 0.00 0.00 0.00 0.00 0.00 0.00 0.00 0.00 0.00 0.00 0.00 0.00 0.01 0.00 0.00 0.00 0.00 0.00 0.00 0.00 0.00 0.00 0.00 0.00 0.00 0.00 0.00 0.00 0.00 0.00 0.00 0.00 0.01 0.00 0.01 0.02 0.01 0.02 0.02 0.02 0.01 0.01 0.03 0.02 0.03 0.06 0.03
0.00 0.00 0.00 0.00 0.00 0.00 0.00 0.00 0.00 0.00 0.00 0.00 0.00 0.00 0.00 0.00 0.00 0.00 0.00 0.00 0.00 0.00 0.00 0.00 0.00 0.00 0.00 0.00 0.00 0.00 0.01 0.02 0.01 0.02 0.01 0.02 0.02 0.04 0.03 0.04 0.03 0.03 0.02 0.04 0.04 0.03 0.02 0.05 0.03
MSLP
1007.91 1007.80 1007.93 1006.81 1009.10 1007.42 1004.66 1002.87 1002.02 1002.07 1002.09 1002.17 1003.00 1004.07 1005.66 1006.52 1007.63 1009.32 1010.11 1010.68 1011.34 1012.48 1013.39 1013.80 1013.87 1014.05 1014.15 1014.32 1014.52 1014.70 1014.79 1014.87 1015.03 1015.37 1015.43 1015.64 1015.83 1015.99 1016.01 1016.04 1016.06 1016.10 1016.18 1016.41 1016.32 1016.46 1016.56 1016.72 1016.76
1007.15 1006.52 1006.66 1007.60 1009.30 1006.62 1004.54 1002.96 1002.51 1002.71 1002.62 1002.80 1003.75 1005.17 1006.12 1007.70 1008.44 1009.55 1010.60 1011.01 1011.43 1012.43 1013.27 1013.83 1014.11 1014.25 1014.40 1014.47 1014.72 1014.89 1015.00 1015.11 1015.36 1015.59 1015.72 1015.96 1016.03 1016.03 1016.31 1016.31 1016.31 1016.32 1016.40 1016.49 1016.57 1016.71 1016.77 1016.89 1016.99
1007.64 1006.17 1007.68 1009.32 1009.64 1007.09 1003.46 1002.86 1002.76 1002.84 1002.76 1002.75 1004.07 1005.34 1006.62 1007.96 1008.87 1010.03 1010.94 1011.27 1011.81 1012.58 1013.07 1014.15 1014.27 1014.41 1014.42 1014.72 1014.94 1015.21 1015.23 1015.40 1015.55 1015.72 1015.92 1016.13 1016.17 1016.40 1016.45 1016.44 1016.51 1016.61 1016.70 1016.77 1016.89 1016.99 1017.09 1017.18 1017.14
1006.03 1005.68 1009.70 1011.00 1009.60 1006.09 1003.15 1002.83 1002.39 1002.95 1003.26 1003.24 1004.31 1005.98 1007.35 1007.44 1008.97 1010.53 1010.99 1011.35 1012.08 1012.84 1013.63 1014.40 1014.34 1014.41 1014.80 1015.00 1015.29 1015.44 1015.55 1015.59 1015.80 1015.80 1016.06 1016.23 1016.34 1016.50 1016.48 1016.59 1016.71 1016.83 1017.05 1017.21 1017.16 1017.17 1017.24 1017.33 1017.20
1004.87 1006.42 1009.65 1010.33 1009.25 1006.72 1003.42 1003.01 1002.81 1002.88 1003.31 1003.66 1004.84 1006.86 1008.00 1008.64 1009.85 1010.47 1011.24 1012.00 1012.69 1013.41 1013.78 1014.46 1014.62 1014.78 1015.07 1015.35 1015.59 1015.67 1015.72 1015.74 1015.78 1015.93 1016.17 1016.31 1016.48 1016.59 1016.81 1016.83 1016.90 1017.07 1017.27 1017.31 1017.38 1017.32 1017.36 1017.38 1017.30
1004.70 1007.35 1009.14 1009.57 1008.98 1007.35 1004.17 1002.84 1002.89 1003.09 1003.64 1004.47 1005.51 1007.03 1008.28 1009.16 1010.20 1010.92 1011.26 1011.95 1012.61 1013.22 1013.79 1014.75 1015.01 1015.15 1015.35 1015.59 1015.82 1015.86 1015.81 1015.77 1015.99 1016.27 1016.46 1016.63 1016.66 1016.83 1016.94 1017.13 1017.12 1017.30 1017.38 1017.45 1017.53 1017.50 1017.46 1017.46 1017.42
1004.33 1006.53 1008.19 1008.71 1009.03 1008.51 1005.43 1003.06 1002.75 1002.94 1003.45 1004.26 1005.60 1006.74 1008.12 1009.38 1010.33 1011.11 1011.82 1012.26 1012.61 1013.06 1014.16 1014.88 1014.98 1015.33 1015.62 1015.78 1015.94 1016.13 1015.94 1016.09 1016.40 1016.63 1016.83 1016.93 1017.04 1017.06 1017.15 1017.28 1017.34 1017.46 1017.47 1017.55 1017.57 1017.52 1017.47 1017.41 1017.30
1002.96 1006.73 1007.05 1007.81 1008.28 1007.67 1005.11 1003.17 1002.76 1002.92 1003.73 1004.26 1005.09 1006.62 1007.91 1009.58 1010.46 1011.57 1012.10 1012.49 1013.11 1013.53 1014.20 1014.68 1014.94 1015.29 1015.58 1015.95 1016.23 1016.07 1016.21 1016.42 1016.71 1016.92 1016.91 1017.07 1017.11 1017.23 1017.30 1017.40 1017.46 1017.49 1017.52 1017.55 1017.52 1017.40 1017.27 1017.26 1017.12
1002.69 1006.43 1006.04 1006.35 1006.84 1006.32 1004.36 1003.19 1003.39 1003.50 1003.74 1004.09 1004.82 1005.94 1007.79 1009.42 1010.34 1011.50 1012.18 1012.73 1013.26 1013.60 1014.12 1014.06 1014.68 1015.29 1015.43 1015.94 1016.28 1016.36 1016.50 1016.60 1016.76 1016.91 1016.75 1016.98 1016.84 1017.01 1017.36 1017.31 1017.49 1017.52 1017.51 1017.48 1017.37 1017.15 1017.18 1017.20 1017.00
1003.00 1005.45 1004.25 1004.62 1006.29 1006.45 1004.58 1003.41 1003.23 1003.37 1003.95 1004.50 1005.50 1006.93 1007.98 1008.76 1010.09 1010.89 1011.74 1012.76 1013.70 1013.90 1014.11 1013.92 1014.48 1015.16 1015.81 1016.05 1016.50 1016.67 1016.65 1016.70 1016.87 1016.86 1016.91 1017.14 1017.01 1016.72 1016.87 1017.25 1017.28 1017.38 1017.39 1017.26 1016.99 1016.91 1017.13 1017.20 1016.55
1003.97 1004.19 1002.60 1004.18 1006.00 1006.51 1005.74 1003.24 1003.67 1004.60 1005.17 1004.97 1005.57 1006.86 1007.87 1008.44 1009.77 1010.55 1011.31 1012.19 1013.05 1014.06 1014.02 1014.68 1015.07 1015.47 1016.03 1016.33 1016.59 1016.76 1016.75 1016.72 1016.89 1016.74 1016.43 1016.63 1016.51 1016.33 1016.58 1016.92 1016.72 1017.04 1017.12 1016.91 1016.86 1016.80 1016.71 1016.32 1016.25
1002.57 1003.04 1002.88 1003.75 1004.39 1005.47 1004.03 1003.24 1004.35 1005.17 1005.31 1005.02 1005.50 1006.76 1007.56 1008.03 1008.66 1009.89 1010.90 1011.81 1012.82 1013.73 1014.08 1014.75 1015.24 1015.51 1016.05 1016.37 1016.49 1016.66 1016.81 1016.74 1016.53 1016.12 1015.87 1015.99 1015.93 1016.03 1016.23 1016.31 1016.44 1016.56 1016.34 1016.36 1016.52 1016.31 1016.04 1015.35 1015.06
1003.17 1003.83 1003.29 1003.51 1003.96 1004.30 1004.38 1003.72 1004.38 1004.96 1004.76 1004.58 1005.48 1006.61 1007.22 1007.61 1008.38 1009.01 1009.72 1011.24 1012.03 1012.82 1013.75 1014.52 1015.20 1015.72 1016.00 1016.22 1016.33 1016.41 1016.30 1016.60 1016.22 1015.99 1015.88 1015.89 1016.20 1015.73 1016.07 1016.36 1017.12 1016.44 1015.97 1015.54 1015.78 1015.75 1015.23 1015.21 1015.04
1003.33 1003.77 1003.27 1003.72 1004.34 1004.36 1004.53 1004.63 1004.74 1005.12 1004.92 1004.89 1005.68 1006.29 1006.82 1007.27 1007.99 1009.16 1009.89 1010.29 1011.22 1012.20 1013.08 1014.08 1014.80 1015.56 1015.83 1015.97 1016.07 1016.11 1016.07 1016.28 1016.16 1016.05 1015.84 1015.77 1016.00 1015.60 1015.56 1015.71 1015.98 1015.89 1015.36 1015.34 1015.18 1015.12 1015.15 1015.04 1014.92
1002.17 1003.62 1005.51 1005.00 1003.87 1003.98 1004.44 1005.24 1006.01 1006.42 1005.04 1005.10 1005.55 1005.79 1006.31 1007.17 1007.88 1008.50 1009.21 1009.79 1010.58 1012.25 1012.89 1013.71 1014.46 1014.93 1015.38 1015.30 1015.40 1015.60 1015.61 1015.55 1016.12 1015.75 1015.88 1016.29 1016.24 1015.36 1015.72 1016.13 1015.89 1015.72 1015.13 1015.76 1015.62 1015.23 1014.86 1014.77 1014.47
1001.69 1004.48 1006.04 1007.32 1005.82 1003.74 1004.54 1006.87 1006.78 1005.96 1005.15 1004.91 1005.11 1005.46 1006.00 1006.93 1007.64 1008.37 1009.12 1009.42 1010.20 1011.50 1013.01 1013.63 1013.77 1014.30 1014.84 1014.91 1015.08 1015.04 1015.14 1015.27 1015.49 1015.64 1015.56 1016.43 1016.59 1015.40 1015.45 1017.16 1016.46 1016.04 1015.49 1015.74 1016.16 1016.44 1015.48 1015.16 1014.70
1001.20 1003.79 1006.58 1007.20 1004.76 1003.75 1004.50 1007.61 1006.48 1005.76 1005.25 1005.04 1004.77 1005.13 1005.82 1006.63 1007.36 1007.92 1008.41 1009.09 1009.87 1011.20 1012.13 1012.86 1013.55 1013.94 1014.26 1014.77 1014.77 1014.94 1014.84 1014.64 1015.05 1015.32 1015.24 1015.61 1016.40 1015.39 1015.47 1017.92 1017.19 1016.24 1015.81 1016.86 1017.07 1016.15 1016.16 1015.40 1015.01
1000.89 1002.95 1005.18 1004.89 1004.39 1003.52 1003.58 1004.80 1004.76 1004.98 1004.61 1004.86 1004.63 1004.96 1005.52 1006.44 1006.78 1007.52 1008.11 1008.80 1009.64 1010.65 1011.50 1012.28 1013.33 1013.62 1014.00 1014.56 1014.72 1014.87 1014.96 1014.75 1014.60 1014.76 1015.22 1015.41 1015.52 1015.31 1015.47 1016.11 1015.86 1015.80 1016.51 1017.06 1017.04 1016.98 1016.17 1015.74 1015.95
999.46 1000.93 1001.95 1002.51 1003.23 1003.34 1002.09 1002.33 1003.06 1003.41 1003.65 1004.40 1004.87 1004.79 1005.20 1005.62 1006.22 1007.16 1007.65 1008.47 1009.36 1010.35 1011.46 1012.15 1012.92 1013.57 1014.03 1014.45 1014.60 1014.61 1014.73 1014.52 1014.72 1014.63 1015.12 1015.31 1015.38 1015.44 1015.35 1015.73 1015.61 1015.67 1016.40 1016.43 1016.74 1016.34 1016.38 1015.81 1015.59
998.71 999.17 999.87 1000.99 1001.08 1001.28 1000.93 1000.92 1001.57 1002.42 1002.84 1003.22 1004.22 1004.62 1004.96 1005.09 1005.73 1006.51 1007.32 1008.20 1008.72 1010.07 1011.21 1012.09 1012.68 1013.41 1013.84 1014.35 1014.41 1014.26 1014.22 1014.30 1014.37 1014.81 1014.96 1015.19 1015.30 1015.38 1015.56 1015.77 1015.99 1015.80 1016.07 1016.48 1016.57 1016.74 1016.67 1016.03 1015.43
998.40 998.66 998.80 999.85 1000.33 1000.20 1000.40 1000.56 1001.71 1003.21 1003.59 1002.80 1003.06 1003.76 1004.08 1004.58 1005.32 1006.06 1006.58 1007.34 1008.16 1009.39 1010.58 1011.71 1012.42 1013.17 1013.64 1013.92 1014.15 1014.17 1014.16 1014.30 1014.49 1014.87 1015.05 1015.01 1015.07 1015.29 1015.59 1015.58 1015.67 1016.00 1016.07 1016.15 1016.37 1016.42 1016.30 1016.18 1015.91
998.19 998.27 998.46 999.32 999.92 999.41 999.53 1000.26 1001.00 1001.93 1002.78 1002.65 1002.20 1002.55 1003.06 1003.90 1004.28 1005.21 1005.66 1006.52 1007.40 1008.60 1009.80 1010.96 1011.98 1012.85 1013.32 1013.76 1013.83 1014.10 1014.23 1014.33 1014.39 1014.89 1015.33 1015.04 1014.86 1015.05 1015.27 1015.55 1015.61 1015.77 1016.05 1016.25 1016.21 1016.11 1016.03 1016.04 1015.96
998.31 997.96 997.93 998.33 998.79 999.16 999.27 999.63 999.93 1001.54 1001.34 1001.21 1000.51 1000.83 1001.78 1002.55 1003.40 1004.45 1005.37 1005.73 1006.33 1007.73 1008.92 1010.14 1011.36 1012.28 1012.84 1013.34 1013.54 1013.83 1014.16 1014.06 1014.13 1014.41 1014.73 1014.71 1014.90 1014.85 1014.92 1015.20 1015.42 1015.76 1015.92 1016.10 1016.00 1016.01 1016.07 1016.04 1015.98
998.51 998.42 998.16 998.08 998.62 998.73 998.83 999.05 1000.53 1002.46 1001.61 1000.53 999.66 999.71 1000.24 1001.33 1002.37 1003.85 1004.60 1005.81 1005.66 1007.04 1008.12 1009.43 1010.75 1011.72 1012.38 1012.95 1013.35 1013.70 1013.96 1013.92 1014.09 1014.11 1014.47 1014.88 1014.87 1014.78 1014.47 1014.66 1015.01 1015.28 1015.59 1015.89 1016.10 1016.19 1016.13 1016.08 1016.14
998.40 998.46 998.33 998.45 998.55 998.13 998.22 997.40 999.50 999.83 1000.02 999.48 998.86 999.11 999.80 1000.58 1001.95 1003.41 1004.92 1006.43 1005.68 1006.55 1007.40 1008.72 1010.10 1011.24 1011.96 1012.50 1012.93 1013.38 1013.48 1013.68 1013.87 1014.00 1015.02 1015.71 1015.78 1015.02 1014.42 1014.39 1014.76 1014.97 1015.22 1015.36 1015.68 1016.08 1016.29 1016.28 1016.17
997.68 997.94 997.80 997.84 998.05 999.53 999.41 998.38 998.35 997.54 997.43 998.10 997.75 998.57 999.86 1000.29 1000.88 1002.44 1003.27 1004.31 1005.09 1005.92 1006.68 1007.97 1009.52 1010.65 1011.44 1011.88 1012.42 1012.88 1013.14 1013.26 1013.38 1013.60 1014.38 1014.99 1015.50 1014.85 1014.13 1014.33 1014.68 1014.70 1014.80 1015.05 1015.22 1015.82 1016.12 1016.08 1016.05
996.82 997.18 997.47 997.35 998.04 999.12 1000.04 999.91 998.67 997.13 997.00 997.16 997.79 1000.05 1001.03 1000.72 1000.35 1000.67 1001.39 1002.61 1004.00 1005.14 1006.13 1007.27 1008.77 1009.87 1010.70 1011.22 1011.78 1012.24 1012.69 1012.91 1012.85 1012.97 1013.27 1014.05 1014.32 1014.20 1013.87 1014.19 1014.51 1014.70 1014.87 1014.94 1015.32 1015.50 1015.70 1015.75 1015.85
996.80 996.52 996.78 997.02 997.25 997.89 999.19 999.54 999.34 998.03 996.76 997.18 998.76 999.56 999.60 998.73 999.42 1000.00 1000.60 1001.96 1003.27 1004.48 1005.76 1006.81 1008.18 1009.11 1009.95 1010.56 1011.02 1011.50 1011.97 1012.40 1012.59 1012.62 1012.79 1012.90 1012.95 1013.08 1013.58 1014.04 1014.39 1014.34 1014.53 1014.89 1015.10 1015.39 1015.48 1015.52 1015.51
996.33 996.39 996.14 996.20 996.37 996.44 997.58 998.36 996.90 997.44 996.74 997.39 998.95 999.91 999.73 996.04 998.46 999.95 1000.85 1001.86 1003.07 1004.22 1005.35 1006.47 1007.68 1008.65 1009.41 1010.04 1010.40 1010.85 1011.30 1011.74 1012.23 1012.42 1012.48 1012.58 1012.86 1012.91 1013.13 1013.52 1013.77 1014.17 1014.03 1014.37 1014.76 1015.15 1015.11 1015.19 1015.22
995.37 995.37 995.80 995.65 995.75 995.70 995.94 995.65 995.71 996.52 996.67 997.32 999.75 1001.09 1000.09 999.94 999.50 1000.33 1001.17 1002.19 1003.08 1004.18 1005.03 1006.05 1007.01 1007.94 1008.71 1009.30 1009.82 1010.17 1010.55 1011.09 1011.47 1011.91 1012.06 1012.27 1012.42 1012.72 1012.96 1013.17 1013.41 1013.53 1013.86 1014.01 1014.20 1014.73 1014.82 1014.83 1015.12
Thickness
5808 5805 5800 5798 5744 5760 5771 5791 5812 5797 5796 5816 5811 5795 5779 5780 5763 5733 5778 5778 5776 5766 5759 5758 5759 5761 5762 5762 5764 5764 5765 5766 5767 5766 5766 5766 5764 5763 5763 5763 5762 5762 5763 5762 5762 5761 5760 5758 5758
5815 5817 5807 5768 5735 5749 5763 5801 5790 5797 5805 5813 5804 5790 5777 5757 5774 5768 5767 5772 5774 5766 5760 5758 5758 5758 5759 5760 5761 5762 5763 5764 5763 5764 5764 5764 5763 5764 5762 5761 5762 5763 5762 5762 5762 5761 5760 5758 5758
5811 5822 5772 5727 5726 5731 5781 5800 5798 5804 5812 5810 5792 5792 5777 5761 5772 5768 5770 5771 5768 5765 5762 5755 5755 5756 5758 5759 5759 5759 5760 5760 5761 5762 5763 5763 5763 5762 5762 5762 5762 5762 5762 5762 5762 5761 5759 5758 5759
5817 5809 5758 5735 5734 5769 5804 5805 5811 5800 5804 5811 5798 5771 5778 5790 5775 5770 5772 5773 5767 5762 5757 5752 5754 5755 5755 5757 5756 5756 5758 5759 5760 5762 5762 5762 5763 5762 5763 5762 5762 5762 5760 5760 5762 5761 5759 5758 5759
5827 5796 5735 5735 5747 5767 5813 5813 5812 5799 5798 5799 5794 5763 5761 5778 5777 5774 5770 5765 5760 5757 5754 5751 5750 5752 5753 5753 5753 5754 5756 5758 5759 5760 5760 5761 5761 5762 5761 5762 5761 5761 5760 5761 5761 5761 5759 5759 5760
5802 5778 5748 5744 5745 5765 5804 5820 5811 5802 5798 5793 5782 5767 5763 5779 5770 5768 5769 5765 5760 5757 5753 5746 5747 5749 5750 5751 5752 5754 5756 5758 5758 5759 5759 5759 5760 5761 5760 5759 5760 5761 5761 5761 5760 5760 5760 5760 5761
5797 5773 5754 5750 5749 5739 5776 5821 5808 5804 5798 5791 5793 5766 5771 5770 5772 5769 5763 5762 5761 5757 5749 5743 5747 5748 5748 5750 5750 5751 5753 5756 5757 5756 5756 5757 5759 5760 5760 5759 5760 5760 5761 5761 5761 5761 5762 5763 5765
5823 5770 5772 5764 5747 5734 5795 5814 5821 5810 5794 5813 5805 5768 5762 5769 5773 5766 5762 5759 5756 5754 5750 5748 5749 5749 5749 5747 5748 5752 5753 5754 5755 5755 5755 5756 5758 5758 5759 5759 5760 5761 5762 5762 5762 5764 5765 5767 5769
5836 5758 5762 5775 5772 5773 5806 5806 5817 5821 5805 5807 5806 5796 5786 5781 5777 5763 5757 5754 5753 5754 5751 5754 5751 5749 5750 5749 5748 5750 5751 5753 5754 5755 5757 5758 5761 5761 5761 5762 5761 5762 5763 5764 5765 5768 5769 5770 5773
5809 5754 5783 5803 5783 5769 5801 5809 5811 5807 5800 5797 5793 5793 5790 5786 5772 5764 5758 5750 5747 5747 5751 5759 5754 5751 5748 5748 5747 5749 5751 5753 5755 5758 5759 5760 5762 5764 5766 5766 5766 5765 5766 5768 5771 5772 5771 5772 5778
5785 5775 5824 5805 5787 5767 5779 5813 5814 5794 5773 5794 5788 5786 5787 5785 5776 5767 5763 5758 5754 5748 5754 5752 5751 5749 5748 5748 5748 5748 5749 5753 5756 5760 5764 5766 5768 5770 5771 5771 5774 5770 5770 5772 5775 5774 5776 5781 5783
5800 5814 5826 5818 5813 5793 5807 5820 5801 5787 5790 5806 5805 5797 5791 5786 5781 5773 5767 5760 5756 5752 5754 5752 5749 5750 5748 5749 5748 5748 5749 5753 5758 5763 5769 5770 5773 5775 5776 5776 5776 5776 5778 5778 5780 5781 5783 5790 5793
5797 5787 5822 5824 5819 5814 5814 5810 5803 5798 5810 5819 5810 5799 5792 5791 5786 5784 5780 5770 5766 5760 5757 5754 5751 5748 5747 5747 5748 5749 5751 5753 5759 5764 5769 5772 5773 5777 5778 5777 5772 5781 5782 5787 5790 5790 5792 5793 5795
5807 5807 5822 5821 5811 5812 5803 5804 5805 5799 5811 5810 5803 5798 5797 5794 5790 5781 5776 5776 5773 5768 5763 5759 5755 5749 5748 5749 5750 5753 5755 5756 5761 5765 5771 5774 5777 5779 5780 5782 5783 5782 5789 5790 5793 5796 5796 5798 5799
5829 5804 5779 5798 5816 5806 5810 5785 5780 5775 5807 5803 5800 5802 5801 5796 5793 5786 5785 5780 5779 5768 5765 5759 5757 5753 5753 5755 5757 5758 5759 5762 5761 5769 5771 5770 5776 5783 5782 5781 5785 5784 5793 5789 5791 5796 5801 5803 5804
5816 5790 5746 5762 5784 5815 5803 5746 5769 5799 5802 5800 5803 5802 5800 5796 5795 5793 5788 5787 5784 5776 5764 5763 5764 5761 5758 5759 5759 5762 5764 5766 5766 5771 5773 5765 5771 5784 5783 5769 5775 5777 5787 5787 5786 5787 5795 5800 5805
5815 5765 5749 5752 5803 5809 5799 5735 5776 5802 5801 5795 5805 5804 5799 5794 5795 5796 5796 5792 5787 5776 5770 5768 5766 5765 5764 5761 5763 5764 5768 5772 5772 5774 5776 5776 5770 5785 5784 5762 5761 5774 5781 5779 5779 5788 5790 5798 5801
5787 5758 5749 5759 5790 5806 5800 5773 5798 5803 5802 5798 5804 5805 5801 5792 5795 5799 5798 5797 5791 5783 5778 5772 5767 5767 5767 5765 5765 5767 5769 5773 5775 5777 5777 5778 5779 5785 5785 5780 5783 5782 5779 5782 5779 5783 5791 5795 5792
5826 5804 5784 5792 5802 5797 5809 5807 5804 5811 5810 5799 5798 5801 5800 5798 5804 5800 5801 5800 5794 5786 5777 5773 5769 5766 5767 5764 5764 5768 5768 5776 5776 5779 5778 5778 5781 5783 5786 5785 5785 5786 5780 5787 5786 5792 5786 5794 5796
5825 5817 5809 5810 5819 5815 5815 5813 5813 5813 5812 5812 5802 5799 5799 5801 5801 5801 5801 5797 5796 5786 5779 5774 5771 5768 5768 5766 5768 5773 5775 5779 5780 5779 5779 5780 5781 5783 5784 5783 5783 5788 5786 5785 5787 5784 5783 5793 5800
5815 5810 5815 5800 5811 5822 5813 5805 5803 5797 5798 5814 5815 5807 5808 5804 5800 5800 5802 5801 5800 5790 5783 5777 5773 5769 5768 5770 5771 5773 5776 5776 5776 5776 5778 5780 5781 5782 5782 5783 5785 5786 5789 5790 5791 5791 5790 5786 5792
5795 5828 5824 5808 5794 5784 5821 5774 5795 5802 5789 5804 5814 5815 5811 5808 5812 5807 5807 5806 5804 5797 5792 5784 5778 5772 5771 5771 5771 5769 5767 5766 5774 5772 5773 5779 5781 5782 5783 5782 5785 5787 5789 5789 5793 5795 5794 5793 5787
5802 5831 5829 5821 5806 5802 5805 5794 5809 5791 5798 5804 5824 5826 5823 5820 5818 5809 5808 5812 5813 5806 5798 5790 5782 5777 5775 5773 5773 5771 5767 5773 5776 5776 5776 5780 5782 5783 5785 5784 5785 5787 5789 5791 5794 5794 5794 5794 5793
5822 5812 5817 5822 5808 5775 5803 5806 5788 5761 5793 5805 5825 5834 5834 5828 5827 5817 5817 5806 5813 5811 5805 5795 5785 5779 5778 5774 5773 5770 5768 5770 5772 5777 5775 5777 5780 5786 5789 5789 5789 5790 5791 5790 5790 5792 5793 5793 5793
5808 5793 5766 5763 5770 5772 5822 5826 5793 5795 5816 5813 5827 5836 5837 5835 5826 5812 5798 5792 5806 5800 5806 5799 5789 5780 5779 5777 5775 5773 5772 5773 5773 5775 5765 5759 5762 5774 5788 5792 5791 5793 5793 5792 5791 5791 5790 5791 5791
5798 5797 5774 5749 5764 5742 5798 5791 5803 5836 5842 5836 5854 5842 5830 5835 5836 5822 5814 5812 5810 5810 5810 5804 5791 5783 5781 5780 5778 5777 5776 5776 5777 5779 5769 5767 5763 5772 5789 5790 5790 5792 5794 5794 5793 5792 5790 5792 5792
5804 5786 5816 5798 5799 5764 5765 5782 5808 5838 5838 5847 5849 5817 5808 5816 5835 5839 5837 5832 5823 5817 5812 5806 5795 5789 5785 5783 5782 5780 5779 5778 5779 5781 5781 5773 5775 5781 5787 5787 5787 5788 5790 5792 5791 5791 5791 5792 5791
5805 5827 5788 5796 5760 5759 5754 5764 5758 5795 5830 5841 5817 5812 5822 5844 5842 5842 5840 5832 5826 5820 5814 5810 5800 5793 5789 5787 5786 5784 5782 5781 5781 5783 5781 5782 5784 5785 5784 5783 5783 5788 5788 5789 5789 5787 5788 5789 5790
5797 5791 5805 5812 5807 5782 5746 5759 5819 5803 5833 5836 5821 5812 5813 5840 5844 5839 5835 5834 5826 5821 5815 5807 5800 5793 5790 5788 5788 5786 5784 5783 5781 5780 5782 5782 5782 5783 5783 5783 5784 5783 5786 5786 5785 5783 5786 5786 5787
5818 5810 5806 5787 5783 5807 5801 5801 5838 5833 5840 5845 5815 5791 5802 5810 5838 5835 5831 5825 5823 5815 5813 5807 5803 5798 5793 5791 5788 5787 5787 5785 5782 5779 5780 5781 5781 5782 5781 5782 5782 5783 5783 5783 5782 5780 5782 5782 5781